Frenchville, ME

5:03 AM EDT on October 24, 2017 (GMT -0400)
Northern Aroostook Regional

Weather History for KFVE - April, 2014

Change the Weather History Date:

Thursday, April 3, 2014

  Actual Average Record
Temperature  
Mean Temperature 28 °F 31 °F  
Max Temperature 33 °F 38 °F 53 °F (2015)
Min Temperature 22 °F 23 °F 5 °F (2016)
Degree Days  
Heating Degree Days 37    
Month to date heating degree days 109  
Since 1 July heating degree days 8625  
Cooling Degree Days 0    
Month to date cooling degree days 0  
Year to date cooling degree days 0  
Moisture  
Dew Point 23 °F    
Average Humidity 81    
Maximum Humidity 100    
Minimum Humidity 56    
Precipitation  
Precipitation T in 0.08 in 0.69 in (2005)
Month to date precipitation T 0.25  
Year to date precipitation 3.95 4.30  
Sea Level Pressure  
Sea Level Pressure 30.02 in    
Wind  
Wind Speed 10 mph (NW)    
Max Wind Speed 20 mph    
Max Gust Speed 23 mph    
Visibility 6 miles    
Events Snow    
T = Trace of Precipitation, MM = Missing Value Source: NWS Daily Summary

Daily Weather History Graph

Daily Weather History Graph

Search for Another Location

Airport or City:

Trip Planner

Search our weather history database for the weather conditions in past years. The results will help you decide how hot, cold, wet, or windy it might be!

Date:

Astronomy

Apr. 03, 2014 Rise Set
Actual Time 6:08 AM EDT 7:05 PM EDT
Civil Twilight 5:37 AM EDT 7:36 PM EDT
Nautical Twilight 4:59 AM EDT 8:14 PM EDT
Astronomical Twilight 4:20 AM EDT 8:53 PM EDT
Moon 8:21 AM EDT (4/3) 11:36 PM EDT (4/3)
Length of Visible Light 13h 59m
Length of Day
12h 57m
Waxing Crescent, 17% of the Moon is Illuminated
Apr 3
Waxing Crescent
Apr 7
First Quarter
Apr 15
Full
Apr 22
Last Quarter
Apr 29
New

Hourly Weather History & Observations

Time (EDT) Temp. Windchill Dew Point Humidity Pressure Visibility Wind Dir Wind Speed Gust Speed Precip Events Conditions
12:53 AM 28.0 °F 19.3 °F 23.0 °F 81% 29.99 in 10.0 mi SE 9.2 mph - N/A   Scattered Clouds
1:53 AM 27.0 °F 18.7 °F 24.1 °F 89% 29.99 in 10.0 mi SSE 8.1 mph - N/A   Mostly Cloudy
2:53 AM 25.0 °F 17.1 °F 23.0 °F 92% 29.98 in 10.0 mi SE 6.9 mph - N/A   Scattered Clouds
3:53 AM 26.1 °F 17.6 °F 23.0 °F 88% 29.98 in 10.0 mi SE 8.1 mph - N/A   Overcast
4:53 AM 24.1 °F 16.0 °F 23.0 °F 96% 29.99 in 10.0 mi SE 6.9 mph - N/A   Mostly Cloudy
5:53 AM 24.1 °F 18.2 °F 23.0 °F 96% 29.99 in 10.0 mi SE 4.6 mph - N/A   Scattered Clouds
6:53 AM 24.1 °F 19.7 °F 24.1 °F 100% 30.00 in 10.0 mi South 3.5 mph - N/A   Overcast
7:01 AM 24.1 °F - 24.1 °F 100% 29.96 in 10.0 mi Calm Calm - N/A   Overcast
7:53 AM 25.0 °F - 24.1 °F 96% 30.00 in 2.0 mi Calm Calm - 0.00 in Snow Light Snow
8:05 AM 25.0 °F 20.7 °F 24.1 °F 96% 29.97 in 3.0 mi SSW 3.5 mph - 0.00 in Snow Light Snow
8:44 AM 27.0 °F 23.0 °F 24.1 °F 89% 29.97 in 4.0 mi West 3.5 mph - 0.00 in Snow Light Snow
8:53 AM 27.0 °F 23.0 °F 24.1 °F 89% 30.01 in 3.0 mi WSW 3.5 mph - 0.00 in Snow Light Snow
9:32 AM 28.0 °F - 25.0 °F 88% 29.98 in 2.0 mi Calm Calm - 0.00 in Snow Light Snow
9:53 AM 28.9 °F 21.9 °F 25.0 °F 85% 30.01 in 2.5 mi NW 6.9 mph - 0.00 in Snow Light Snow
10:00 AM 28.4 °F 21.2 °F 26.6 °F 93% 29.98 in 2.0 mi NW 6.9 mph - N/A Snow Light Snow
10:07 AM 28.9 °F 21.1 °F 26.1 °F 89% 29.98 in 1.8 mi NNW 8.1 mph - 0.00 in Snow Light Snow
10:17 AM 28.9 °F 20.4 °F 25.0 °F 85% 29.98 in 2.5 mi NNW 9.2 mph - 0.00 in Snow Light Snow
10:21 AM 28.9 °F 20.4 °F 25.0 °F 85% 29.98 in 3.0 mi NNW 9.2 mph - 0.00 in Snow Light Snow
10:40 AM 30.0 °F 21.7 °F 26.1 °F 85% 29.98 in 2.5 mi NNW 9.2 mph - 0.00 in Snow Light Snow
10:51 AM 30.2 °F 23.4 °F 26.6 °F 86% 29.98 in 3.0 mi NNW 6.9 mph - 0.00 in Snow Light Snow
10:53 AM 30.9 °F 21.7 °F 26.1 °F 82% 30.01 in 3.0 mi North 11.5 mph - 0.00 in Snow Light Snow
11:53 AM 30.0 °F 21.7 °F 26.1 °F 85% 30.02 in 2.0 mi NNW 9.2 mph - 0.00 in Snow Light Snow
12:19 PM 30.9 °F 21.7 °F 25.0 °F 79% 30.00 in 2.0 mi NNW 11.5 mph - 0.00 in Snow Light Snow
12:31 PM 30.0 °F 20.0 °F 26.1 °F 85% 30.00 in 1.5 mi NNW 12.7 mph - 0.00 in Snow Light Snow
12:39 PM 30.9 °F 20.7 °F 26.1 °F 82% 30.00 in 1.2 mi NNW 13.8 mph - 0.00 in Snow Light Snow
12:43 PM 30.9 °F 21.2 °F 26.1 °F 82% 30.00 in 1.8 mi NNW 12.7 mph - 0.00 in Snow Light Snow
12:53 PM 30.9 °F 21.7 °F 25.0 °F 79% 30.04 in 2.5 mi NW 11.5 mph - 0.00 in Snow Light Snow
1:03 PM 30.9 °F 20.7 °F 25.0 °F 79% 30.00 in 4.0 mi NNW 13.8 mph - 0.00 in Snow Light Snow
1:14 PM 30.9 °F 20.7 °F 25.0 °F 79% 30.00 in 8.0 mi NNW 13.8 mph - 0.00 in   Overcast
1:53 PM 32.0 °F 21.6 °F 24.1 °F 73% 30.03 in 10.0 mi NNW 15.0 mph - 0.00 in   Overcast
2:53 PM 32.0 °F 22.5 °F 24.1 °F 73% 30.03 in 10.0 mi NNW 12.7 mph - N/A   Overcast
3:53 PM 32.0 °F 22.1 °F 23.0 °F 69% 30.04 in 10.0 mi NNW 13.8 mph - 0.00 in   Overcast
4:53 PM 32.0 °F 22.1 °F 19.0 °F 59% 30.07 in 10.0 mi NW 13.8 mph - N/A   Overcast
5:53 PM 30.9 °F 20.7 °F 17.1 °F 57% 30.09 in 10.0 mi NW 13.8 mph - N/A   Overcast
6:53 PM 30.0 °F 18.7 °F 16.0 °F 56% 30.10 in 10.0 mi NNW 16.1 mph 21.9 mph N/A   Overcast
7:53 PM 28.0 °F 16.1 °F 15.1 °F 58% 30.13 in 10.0 mi NW 16.1 mph - N/A   Overcast
8:53 PM 27.0 °F 15.6 °F 15.1 °F 61% 30.12 in 10.0 mi NNW 13.8 mph - N/A   Overcast
9:53 PM 27.0 °F 16.1 °F 16.0 °F 63% 30.12 in 10.0 mi NNW 12.7 mph - N/A   Overcast
11:53 PM 25.0 °F 14.2 °F 16.0 °F 69% 30.14 in 10.0 mi NNW 11.5 mph - N/A   Mostly Cloudy